Starlink 6216

operational
NORAD ID: 56893 Int'l Des: 2023-083 Owner: SPXS Country: US Constellation: starlink
LEOCIRCULAR

Starlink 6216について

説明を読み込み中...

リアルタイム位置

3D地球を読み込み中...

次回通過

高度履歴

Altitude vs Time

uPlot chart will show altitude changes over time

軌道要素

1 56893U 23083T 25301.08067258 .00000495 00000-0 51735-4 0 9997
2 56893 43.0013 82.2459 0001159 277.2669 82.8041 15.02536588131842
Epoch: Oct 28, 2025 • Age: 27 hours

現在のステータス

高度 564.9 km
速度 7.58 km/s
衛星直下点 -25.91°S, 66.09°W
打ち上げ日 Jun 12, 2023
運用期間 2.3 years
タイプ internet

技術仕様

分類 Payload
質量 305.00 kg
乾燥質量 290.00 kg
総質量 305.00 kg
長さ 0.20 m
直径 2.80 m
スパン 9.00 m
形状 Box + pan
製造者 SPXS
バスタイプ Starlink
フェーズステータス In Orbit
所有者/国 SPXS/US

大規模コンステレーション

Loading constellations...